Weather History for Sarasota, FL

Change the Weather History Date:

Monday, December 10, 2012

  Actual Average Record
Temperature  
Mean Temperature 72 °F 64 °F  
Max Temperature 82 °F 74 °F 86 °F (1972)
Min Temperature 61 °F 55 °F 29 °F (1917)
Degree Days  
Heating Degree Days 0 3  
Month to date heating degree days 0 27  
Since 1 July heating degree days 41 60  
Cooling Degree Days 7 3  
Month to date cooling degree days 58 30  
Year to date cooling degree days 3782 3330  
Growing Degree Days 21 (Base 50)    
Moisture  
Dew Point 68 °F    
Average Humidity 91    
Maximum Humidity 100    
Minimum Humidity 74    
Precipitation  
Precipitation 0.62 in 0.07 in 1.54 in (1969)
Month to date precipitation 0.62 0.68  
Year to date precipitation 44.66 51.16  
Sea Level Pressure  
Sea Level Pressure 29.94 in    
Wind  
Wind Speed 9 mph (South)    
Max Wind Speed 21 mph    
Max Gust Speed 29 mph    
Visibility 8 miles    
Events Rain    
T = Trace of Precipitation, MM = Missing Value Source: NWS Daily Summary

Daily Weather History Graph

Daily Weather History Graph

Search for Another Location

Airport:

Trip Planner

Search our weather history database for the weather conditions in past years. The results will help you decide how hot, cold, wet, or windy it might be!

Date:

Astronomy

Dec. 10, 2012 Rise Set
Actual Time 7:09 AM EST 5:36 PM EST
Civil Twilight 6:44 AM EST 6:02 PM EST
Nautical Twilight 6:15 AM EST 6:31 PM EST
Astronomical Twilight 5:46 AM EST 6:59 PM EST
Moon 4:01 AM EST (12/10) 3:17 PM EST (12/10)
Length of Visible Light 11h 17m
Length of Day
10h 26m
Waning Crescent, 10% of the Moon is Illuminated
Dec 10
Waning Crescent
Dec 13
New
Dec 20
First Quarter
Dec 28
Full
Jan 4
Last Quarter

Hourly Weather History & Observations

Time (EST) Temp. Heat Index Dew Point Humidity Pressure Visibility Wind Dir Wind Speed Gust Speed Precip Events Conditions
12:31 AM 62.6 °F - 62.6 °F 100% 30.02 in 2.5 mi Calm Calm - N/A   Scattered Clouds
12:53 AM 63.0 °F - 62.1 °F 97% 30.01 in 0.8 mi Calm Calm - N/A   Scattered Clouds
1:10 AM 62.6 °F - 60.8 °F 94% 30.01 in 2.0 mi Calm Calm - N/A   Mostly Cloudy
1:18 AM 62.6 °F - 62.6 °F 100% 30.01 in 6.0 mi Calm Calm - N/A   Mostly Cloudy
1:53 AM 64.0 °F - 63.0 °F 96% 30.00 in 4.0 mi Calm Calm - N/A   Clear
2:08 AM 62.6 °F - 62.6 °F 100% 30.00 in 2.5 mi Calm Calm - N/A   Partly Cloudy
2:17 AM 62.6 °F - 62.6 °F 100% 30.00 in 4.0 mi Calm Calm - N/A   Scattered Clouds
2:53 AM 64.9 °F - 63.0 °F 93% 29.98 in 9.0 mi ENE 4.6 mph - N/A   Overcast
3:53 AM 64.9 °F - 64.0 °F 97% 29.96 in 8.0 mi Calm Calm - N/A   Overcast
4:53 AM 64.0 °F - 63.0 °F 96% 29.96 in 7.0 mi East 3.5 mph - N/A   Clear
5:53 AM 63.0 °F - 62.1 °F 97% 29.96 in 6.0 mi East 3.5 mph - 0.01 in   Clear
6:53 AM 64.0 °F - 63.0 °F 96% 29.96 in 7.0 mi ESE 3.5 mph - N/A   Clear
7:53 AM 66.9 °F - 64.9 °F 93% 29.98 in 6.0 mi SE 4.6 mph - N/A   Clear
8:53 AM 71.1 °F - 66.9 °F 87% 29.98 in 10.0 mi SSE 8.1 mph - N/A   Overcast
9:53 AM 75.9 °F - 69.1 °F 79% 29.97 in 10.0 mi SSE 8.1 mph - N/A   Mostly Cloudy
10:14 AM 75.2 °F - 69.8 °F 83% 29.97 in 10.0 mi SSE 9.2 mph - N/A   Mostly Cloudy
10:53 AM 78.1 °F - 70.0 °F 76% 29.95 in 10.0 mi South 10.4 mph - N/A   Mostly Cloudy
11:28 AM 80.6 °F 84.6 °F 71.6 °F 74% 29.94 in 10.0 mi South 11.5 mph - N/A   Scattered Clouds
11:53 AM 80.1 °F 83.6 °F 71.1 °F 74% 29.93 in 10.0 mi South 15.0 mph - N/A   Scattered Clouds
12:53 PM 78.1 °F - 72.0 °F 81% 29.93 in 10.0 mi South 17.3 mph 25.3 mph N/A   Mostly Cloudy
1:53 PM 79.0 °F - 73.0 °F 82% 29.88 in 10.0 mi South 16.1 mph 24.2 mph N/A   Overcast
2:14 PM 78.8 °F - 73.4 °F 83% 29.87 in 10.0 mi South 16.1 mph 25.3 mph N/A   Overcast
2:53 PM 77.0 °F - 73.0 °F 88% 29.86 in 10.0 mi South 17.3 mph 25.3 mph N/A   Overcast
3:29 PM 75.2 °F - 73.4 °F 94% 29.86 in 10.0 mi South 19.6 mph 24.2 mph N/A   Overcast
3:53 PM 75.9 °F - 73.0 °F 91% 29.86 in 10.0 mi South 18.4 mph 24.2 mph N/A   Mostly Cloudy
4:36 PM 75.2 °F - 73.4 °F 94% 29.86 in 10.0 mi South 19.6 mph - 0.00 in   Mostly Cloudy
4:53 PM 75.0 °F - 73.0 °F 94% 29.86 in 10.0 mi South 20.7 mph 26.5 mph 0.00 in   Mostly Cloudy
5:01 PM 75.2 °F - 73.4 °F 94% 29.86 in 10.0 mi South 17.3 mph 26.5 mph N/A   Mostly Cloudy
5:53 PM 75.0 °F - 73.0 °F 94% 29.87 in 10.0 mi South 16.1 mph - 0.00 in   Mostly Cloudy
6:17 PM 75.2 °F - 73.4 °F 94% 29.87 in 10.0 mi South 16.1 mph - N/A   Mostly Cloudy
6:53 PM 75.0 °F - 73.0 °F 94% 29.88 in 10.0 mi South 17.3 mph 24.2 mph N/A   Mostly Cloudy
7:00 PM 75.2 °F - 73.4 °F 94% 29.89 in 10.0 mi South 17.3 mph 24.2 mph N/A   Overcast
7:36 PM 73.4 °F - 71.6 °F 94% 29.94 in 10.0 mi WNW 17.3 mph 24.2 mph N/A   Overcast
7:44 PM 69.8 °F - 66.2 °F 88% 29.94 in 9.0 mi WNW 17.3 mph - 0.00 in Rain Light Rain
7:53 PM 70.0 °F - 66.0 °F 87% 29.94 in 8.0 mi West 8.1 mph - 0.06 in Rain Heavy Rain
8:16 PM 68.0 °F - 66.2 °F 94% 29.95 in 1.2 mi WNW 11.5 mph - 0.35 in Rain Heavy Rain
8:22 PM 69.8 °F - 66.2 °F 88% 29.95 in 3.0 mi WNW 15.0 mph - 0.37 in Rain Light Rain
8:53 PM 68.0 °F - 66.0 °F 93% 29.96 in 5.0 mi SW 6.9 mph - 0.49 in Rain Light Rain
9:53 PM 69.1 °F - 68.0 °F 96% 29.94 in 8.0 mi SSW 4.6 mph - 0.02 in Rain Light Rain
10:53 PM 70.0 °F - 69.1 °F 97% 29.94 in 10.0 mi SSW 6.9 mph - 0.04 in   Mostly Cloudy
11:53 PM 70.0 °F - 69.1 °F 97% 29.92 in 9.0 mi SSW 3.5 mph - N/A   Clear